,"May 21 to June 20, 1986",,,,,,,,,,,,,,,,
,NOAA Ship Oceanographer,,,,,,,,,,,,,,,,
Cruise,Group,JD_GMT,Date,Time,Latitude,Longitude,xCO2w_ppm,xCO2a_ppm,Pres_Equil_mB,Pres_sealevel_mB,EqTemp_C,SST(TSG)_C,Sal(TSG)_permil,fCO2w@SST_uatm,fCO2a_uatm,Flag,Dist. km
SA1987_SA2_87,PMEL,163.5,6/12/1986,12:00:00,-40.667,173.817,-99,347.18,1025.5,1025.5,14.56,14.1,35.444,-99,344.7,-99,0
SA1987_SA2_87,PMEL,163.542,6/12/1986,13:00:29,-40.538,173.425,-99,347.41,1025.8,1025.8,14.65,14.2,35.442,-99,344.99,-99,36
SA1987_SA2_87,PMEL,163.583,6/12/1986,13:59:31,-40.412,173.042,-99,347.17,1026.1,1026.1,14.75,14.3,35.44,-99,344.82,-99,71.3
SA1987_SA2_87,PMEL,163.625,6/12/1986,15:00:00,-40.283,172.65,-99,346.12,1026.4,1026.4,14.75,14.3,35.437,-99,343.88,-99,107.5
SA1987_SA2_87,PMEL,163.667,6/12/1986,16:00:29,-40.261,172.348,-99,347.39,1026.3,1026.3,14.85,14.4,35.435,-99,345.08,-99,133.2
SA1987_SA2_87,PMEL,163.708,6/12/1986,16:59:31,-40.239,172.052,-99,346.6,1026.1,1026.1,14.95,14.5,35.433,-99,344.19,-99,158.4
SA1987_SA2_87,PMEL,163.75,6/12/1986,18:00:00,-40.217,171.75,-99,347.45,1026,1026,15.05,14.6,35.43,-99,344.97,-99,184.2
SA1987_SA2_87,PMEL,163.792,6/12/1986,19:00:29,-40.261,171.498,-99,347.03,1026,1026,15.15,14.7,35.428,-99,344.51,-99,206.1
SA1987_SA2_87,PMEL,163.833,6/12/1986,19:59:31,-40.305,171.252,-99,347.19,1026,1026,15.15,14.7,35.425,-99,344.67,-99,227.5
SA1987_SA2_87,PMEL,163.875,6/12/1986,21:00:00,-40.35,171,-99,347.26,1026,1026,15.15,14.7,35.423,-99,344.74,-99,249.4
SA1987_SA2_87,PMEL,163.917,6/12/1986,22:00:29,-40.272,170.658,-99,347.36,1025.3,1025.3,15.15,14.7,35.421,-99,344.6,-99,279.7
SA1987_SA2_87,PMEL,163.958,6/12/1986,22:59:31,-40.195,170.325,-99,347.5,1024.6,1024.6,15.05,14.6,35.418,-99,344.54,-99,309.2
SA1987_SA2_87,PMEL,164,6/13/1986,0:00:00,-40.117,169.983,-99,346.84,1023.9,1023.9,14.95,14.5,35.416,-99,343.68,-99,339.5
SA1987_SA2_87,PMEL,164.042,6/13/1986,1:00:29,-40.072,169.591,-99,346.33,1023,1023,15.05,14.6,35.413,-99,342.84,-99,373.2
SA1987_SA2_87,PMEL,164.083,6/13/1986,1:59:31,-40.028,169.209,-99,346.54,1022.1,1022.1,15.15,14.7,35.411,-99,342.7,-99,406.1
SA1987_SA2_87,PMEL,164.125,6/13/1986,3:00:00,-39.983,168.817,-99,346.1,1021.2,1021.2,15.24,14.8,35.409,-99,341.93,-99,439.8
SA1987_SA2_87,PMEL,164.167,6/13/1986,4:00:29,-39.983,168.492,305.67,346.64,1020.6,1020.6,15.05,14.6,35.406,301.86,342.33,-99,467.5
SA1987_SA2_87,PMEL,164.208,6/13/1986,4:59:31,-39.983,168.175,305.81,346.15,1019.9,1019.9,14.85,14.4,35.404,301.85,341.67,-99,494.5
SA1987_SA2_87,PMEL,164.25,6/13/1986,6:00:00,-39.983,167.85,303.34,346.5,1019.3,1019.3,14.65,14.2,35.401,299.3,341.88,-99,522.1
SA1987_SA2_87,PMEL,164.292,6/13/1986,7:00:29,-39.995,167.671,306.1,346.14,1018.7,1018.7,14.95,14.5,35.399,301.75,341.22,-99,537.4
SA1987_SA2_87,PMEL,164.333,6/13/1986,7:59:31,-40.005,167.496,310.92,346.4,1018.1,1018.1,15.24,14.8,35.397,306.22,341.17,-99,552.4
SA1987_SA2_87,PMEL,164.375,6/13/1986,9:00:00,-40.017,167.317,309.11,346.06,1017.5,1017.5,15.54,15.1,35.394,304.17,340.53,-99,567.7
SA1987_SA2_87,PMEL,164.417,6/13/1986,10:00:29,-40.017,166.997,309.79,346.52,1017,1017,15.24,14.8,35.392,304.79,340.92,-99,594.9
SA1987_SA2_87,PMEL,164.458,6/13/1986,10:59:31,-40.017,166.686,309.72,346.19,1016.4,1016.4,14.95,14.5,35.39,304.62,340.49,-99,621.4
SA1987_SA2_87,PMEL,164.5,6/13/1986,12:00:00,-40.017,166.367,309.38,346.13,1015.9,1015.9,14.65,14.2,35.387,304.23,340.36,-99,648.5
SA1987_SA2_87,PMEL,164.542,6/13/1986,13:00:29,-40.011,166.103,308.55,346.13,1015.4,1015.4,14.65,14.2,35.385,303.26,340.2,-99,671
SA1987_SA2_87,PMEL,164.583,6/13/1986,13:59:31,-40.006,165.847,310.07,346.26,1014.8,1014.8,14.66,14.2,35.382,304.58,340.12,-99,692.8
SA1987_SA2_87,PMEL,164.625,6/13/1986,15:00:00,-40,165.583,308.77,346.84,1014.3,1014.3,14.56,14.1,35.38,303.18,340.55,-99,715.3
SA1987_SA2_87,PMEL,164.667,6/13/1986,16:00:29,-40,165.281,310.08,346.11,1014,1014,14.75,14.3,35.378,304.31,339.67,-99,741
SA1987_SA2_87,PMEL,164.708,6/13/1986,16:59:31,-40,164.986,308.23,346.55,1013.8,1013.8,14.85,14.4,35.375,302.4,340,-99,766.1
SA1987_SA2_87,PMEL,164.75,6/13/1986,18:00:00,-40,164.683,308.82,346.04,1013.5,1013.5,14.95,14.5,35.373,302.86,339.36,-99,791.9
SA1987_SA2_87,PMEL,164.792,6/13/1986,19:00:29,-40,165.098,306.93,346.44,1013.8,1013.8,15.15,14.7,35.37,301.03,339.79,-99,827.2
SA1987_SA2_87,PMEL,164.833,6/13/1986,19:59:31,-40,165.502,307.55,346.35,1014.1,1014.1,15.25,14.8,35.368,301.71,339.77,-99,861.6
SA1987_SA2_87,PMEL,164.875,6/13/1986,21:00:00,-40,165.917,305.05,346.32,1014.4,1014.4,15.34,14.9,35.366,299.31,339.8,-99,896.9
SA1987_SA2_87,PMEL,164.917,6/13/1986,22:00:29,-40,164.937,307.47,346.35,1014.9,1014.9,15.44,15,35.363,301.8,339.97,P,980.3
SA1987_SA2_87,PMEL,164.958,6/13/1986,22:59:31,-40,163.98,306.58,346.86,1015.5,1015.5,15.54,15.1,35.361,301.08,340.64,P,1061.8
SA1987_SA2_87,PMEL,165,6/14/1986,0:00:00,-40,163,308.38,345.98,1016,1016,15.54,15.1,35.358,303,339.94,P,1145.2
SA1987_SA2_87,PMEL,165.042,6/14/1986,1:00:29,-40,163,308.88,346.81,1015.5,1015.5,15.54,15.1,35.356,303.34,340.59,-99,1145.2
SA1987_SA2_87,PMEL,165.083,6/14/1986,1:59:31,-40,163,-99,-99,1015.1,1015.1,15.44,15,35.389,-99,-99,-99,1145.2
SA1987_SA2_87,PMEL,165.125,6/14/1986,3:00:00,-40,163,307.23,347.16,1014.6,1014.6,15.34,14.9,35.422,301.51,340.7,-99,1145.2
SA1987_SA2_87,PMEL,165.167,6/14/1986,4:00:29,-40.006,162.888,305.97,346.59,1014.1,1014.1,15.34,14.9,35.456,300.12,339.97,-99,1154.8
SA1987_SA2_87,PMEL,165.208,6/14/1986,4:59:31,-40.011,162.779,301.55,346.43,1013.7,1013.7,15.34,14.9,35.488,295.67,339.67,-99,1164.1
SA1987_SA2_87,PMEL,165.25,6/14/1986,6:00:00,-40.017,162.667,305.8,346.46,1013.2,1013.2,15.34,14.9,35.522,299.68,339.53,-99,1173.6
SA1987_SA2_87,PMEL,165.292,6/14/1986,7:00:29,-40.011,162.364,305.64,346.5,1013.3,1013.3,15.34,14.9,35.555,299.56,339.61,-99,1199.4
SA1987_SA2_87,PMEL,165.333,6/14/1986,7:59:31,-40.006,162.069,303.55,346.14,1013.3,1013.3,15.34,14.9,35.588,297.51,339.25,-99,1224.5
SA1987_SA2_87,PMEL,165.375,6/14/1986,9:00:00,-40,161.767,301.73,345.78,1013.4,1013.4,15.24,14.8,35.622,295.79,338.97,-99,1250.2
SA1987_SA2_87,PMEL,165.417,6/14/1986,10:00:29,-39.944,161.526,299.51,345.36,1013.9,1013.9,15.25,14.8,35.655,293.76,338.73,-99,1271.7
SA1987_SA2_87,PMEL,165.458,6/14/1986,10:59:31,-39.889,161.291,302.75,345.6,1014.5,1014.5,15.25,14.8,35.688,297.11,339.17,-99,1292.6
SA1987_SA2_87,PMEL,165.5,6/14/1986,12:00:00,-39.833,161.05,303.1,346.26,1015,1015,15.15,14.7,35.721,297.64,340.02,-99,1314.1
SA1987_SA2_87,PMEL,165.542,6/14/1986,13:00:29,-39.777,160.82,303.5,345.72,1015.9,1015.9,15.34,14.9,35.755,298.24,339.72,-99,1334.7
SA1987_SA2_87,PMEL,165.583,6/14/1986,13:59:31,-39.723,160.596,308.49,346.15,1016.7,1016.7,15.54,15.1,35.787,303.32,340.35,-99,1354.8
SA1987_SA2_87,PMEL,165.625,6/14/1986,15:00:00,-39.667,160.367,305.76,346.39,1017.6,1017.6,15.74,15.3,35.821,300.84,340.82,-99,1375.3
SA1987_SA2_87,PMEL,165.667,6/14/1986,16:00:29,-39.611,160.165,300.71,345.93,1018.4,1018.4,15.84,15.4,35.854,296.08,340.6,-99,1393.7
SA1987_SA2_87,PMEL,165.708,6/14/1986,16:59:31,-39.556,159.968,303.75,345.03,1019.1,1019.1,15.93,15.5,35.887,299.25,339.92,-99,1411.6
SA1987_SA2_87,PMEL,165.75,6/14/1986,18:00:00,-39.5,159.767,301.46,346.29,1019.9,1019.9,15.93,15.5,35.921,297.23,341.43,-99,1429.9
SA1987_SA2_87,PMEL,165.792,6/14/1986,19:00:29,-39.5,159.531,302.09,346.87,1021.4,1021.4,15.93,15.5,35.954,298.3,342.51,-99,1450.2
SA1987_SA2_87,PMEL,165.833,6/14/1986,19:59:31,-39.5,159.302,301.56,346.09,1022.9,1022.9,15.84,15.4,35.987,298.25,342.29,-99,1469.8
SA1987_SA2_87,PMEL,165.875,6/14/1986,21:00:00,-39.5,159.067,310.31,346.83,1024.4,1024.4,15.74,15.3,36.02,307.39,343.56,-99,1490
SA1987_SA2_87,PMEL,165.917,6/14/1986,22:00:29,-39.5,158.859,314.48,346.45,1025.3,1025.3,15.74,15.3,36.054,311.79,343.49,-99,1507.8
SA1987_SA2_87,PMEL,165.958,6/14/1986,22:59:31,-39.5,158.657,309.9,346.25,1026.3,1026.3,15.74,15.3,36.087,307.56,343.63,-99,1525.1
SA1987_SA2_87,PMEL,166,6/15/1986,0:00:00,-39.5,158.45,308.03,346.81,1027.2,1027.2,15.74,15.3,36.12,305.97,344.49,-99,1542.9
SA1987_SA2_87,PMEL,166.042,6/15/1986,1:00:29,-39.5,158.17,303.19,345.63,1027.9,1027.9,15.93,15.5,36.107,301.31,343.49,-99,1566.9
SA1987_SA2_87,PMEL,166.083,6/15/1986,1:59:31,-39.5,157.897,307.15,345.66,1028.5,1028.5,16.13,15.7,36.095,305.36,343.65,-99,1590.3
SA1987_SA2_87,PMEL,166.125,6/15/1986,3:00:00,-39.5,157.617,308.34,346.96,1029.2,1029.2,16.33,15.9,36.082,306.69,345.11,-99,1614.3
SA1987_SA2_87,PMEL,166.167,6/15/1986,4:00:29,-39.5,157.359,311.48,345.67,1029.7,1029.7,16.43,16,36.069,309.94,343.95,-99,1636.4
SA1987_SA2_87,PMEL,166.208,6/15/1986,4:59:31,-39.5,157.108,302.29,345.99,1030.3,1030.3,16.53,16.1,36.056,300.93,344.44,-99,1657.9
SA1987_SA2_87,PMEL,166.25,6/15/1986,6:00:00,-39.5,156.85,303.15,346.66,1030.8,1030.8,16.52,16.1,36.044,301.93,345.28,-99,1680
SA1987_SA2_87,PMEL,166.292,6/15/1986,7:00:29,-39.5,156.57,303.65,346.3,1031.7,1031.7,16.62,16.2,36.031,302.68,345.19,-99,1704.1
SA1987_SA2_87,PMEL,166.333,6/15/1986,7:59:31,-39.5,156.297,302.88,346.24,1032.6,1032.6,16.72,16.3,36.018,302.14,345.39,-99,1727.5
SA1987_SA2_87,PMEL,166.375,6/15/1986,9:00:00,-39.5,156.017,299.25,346.82,1033.5,1033.5,16.72,16.3,36.005,298.78,346.28,-99,1751.5
SA1987_SA2_87,PMEL,166.417,6/15/1986,10:00:29,-39.5,155.753,298.72,346.08,1033.4,1033.4,16.72,16.3,35.993,298.22,345.5,-99,1774.1
SA1987_SA2_87,PMEL,166.458,6/15/1986,10:59:31,-39.5,155.497,305.96,346.29,1033.3,1033.3,16.62,16.2,35.98,305.45,345.72,-99,1796.1
SA1987_SA2_87,PMEL,166.5,6/15/1986,12:00:00,-39.5,155.233,308.67,345.96,1033.2,1033.2,16.52,16.1,35.967,308.17,345.39,-99,1818.7
SA1987_SA2_87,PMEL,166.542,6/15/1986,13:00:29,-39.5,154.881,304.53,345.93,1034,1034,16.52,16.1,35.955,304.27,345.63,-99,1848.9
SA1987_SA2_87,PMEL,166.583,6/15/1986,13:59:31,-39.5,154.536,310.69,345.53,1034.8,1034.8,16.52,16.1,35.942,310.66,345.5,-99,1878.5
SA1987_SA2_87,PMEL,166.625,6/15/1986,15:00:00,-39.5,154.183,298.34,345.74,1035.6,1035.6,16.52,16.1,35.929,298.55,345.99,-99,1908.7
SA1987_SA2_87,PMEL,166.667,6/15/1986,16:00:29,-39.528,153.887,298.02,345.99,1035.8,1035.8,16.43,16,35.916,298.32,346.34,-99,1934.3
SA1987_SA2_87,PMEL,166.708,6/15/1986,16:59:31,-39.555,153.597,300.28,346.35,1035.9,1035.9,16.33,15.9,35.904,300.64,346.77,-99,1959.3
SA1987_SA2_87,PMEL,166.75,6/15/1986,18:00:00,-39.583,153.3,298.18,346.14,1036.1,1036.1,16.13,15.7,35.891,298.66,346.7,-99,1985
SA1987_SA2_87,PMEL,166.792,6/15/1986,19:00:29,-39.578,152.93,299.45,346.36,1036.6,1036.6,16.72,16.3,35.878,299.89,346.87,-99,2016.6
SA1987_SA2_87,PMEL,166.833,6/15/1986,19:59:31,-39.572,152.57,310.3,346.33,1037,1037,17.21,16.8,35.866,310.71,346.78,-99,2047.5
SA1987_SA2_87,PMEL,166.875,6/15/1986,21:00:00,-39.567,152.2,308.85,347.56,1037.5,1037.5,17.7,17.3,35.853,309.23,347.99,-99,2079.2
SA1987_SA2_87,PMEL,166.917,6/15/1986,22:00:29,-39.567,152.004,307.51,346.08,1037.7,1037.7,17.8,17.4,35.84,307.91,346.53,-99,2096
SA1987_SA2_87,PMEL,166.958,6/15/1986,22:59:31,-39.567,151.813,308.76,345.5,1037.9,1037.9,17.9,17.5,35.827,309.19,345.98,-99,2112.3
SA1987_SA2_87,PMEL,167,6/16/1986,0:00:00,-39.567,151.617,303.74,345.9,1038.1,1038.1,17.9,17.5,35.815,304.22,346.45,-99,2129.1
SA1987_SA2_87,PMEL,167.042,6/16/1986,1:00:29,-39.572,151.505,303.34,345.72,1037.6,1037.6,17.9,17.5,35.802,303.67,346.1,-99,2138.7
SA1987_SA2_87,PMEL,167.083,6/16/1986,1:59:31,-39.578,151.395,303.21,345.91,1037.2,1037.2,17.8,17.4,35.789,303.46,346.19,-99,2148.2
SA1987_SA2_87,PMEL,167.125,6/16/1986,3:00:00,-39.583,151.283,302.73,346.07,1036.7,1036.7,17.7,17.3,35.776,302.87,346.22,-99,2157.8
SA1987_SA2_87,PMEL,167.167,6/16/1986,4:00:29,-39.6,151.009,300.73,345.54,1036.4,1036.4,17.21,16.8,35.764,300.94,345.79,-99,2181.3
SA1987_SA2_87,PMEL,167.208,6/16/1986,4:59:31,-39.617,150.741,304.17,345.83,1036.2,1036.2,16.72,16.3,35.751,304.5,346.2,-99,2204.3
SA1987_SA2_87,PMEL,167.25,6/16/1986,6:00:00,-39.633,150.467,306.25,346.58,1035.9,1035.9,16.13,15.7,35.738,306.69,347.07,-99,2227.9
SA1987_SA2_87,PMEL,167.292,6/16/1986,7:00:29,-39.611,150.237,306.69,346.46,1036,1036,16.03,15.6,35.726,307.19,347.03,-99,2247.7
SA1987_SA2_87,PMEL,167.333,6/16/1986,7:59:31,-39.589,150.013,298.74,346.85,1036.2,1036.2,15.93,15.5,35.713,299.32,347.52,-99,2267
SA1987_SA2_87,PMEL,167.375,6/16/1986,9:00:00,-39.567,149.783,298.18,345.5,1036.3,1036.3,15.74,15.3,35.7,298.85,346.27,-99,2286.9
SA1987_SA2_87,PMEL,167.417,6/16/1986,10:00:29,-39.522,149.442,303.53,345.39,1036.4,1036.4,15.44,15,35.687,304.33,346.3,-99,2316.5
SA1987_SA2_87,PMEL,167.458,6/16/1986,10:59:31,-39.478,149.108,299.47,346.52,1036.4,1036.4,15.15,14.7,35.675,300.35,347.54,-99,2345.6
SA1987_SA2_87,PMEL,167.5,6/16/1986,12:00:00,-39.433,148.767,314.06,346.85,1036.5,1036.5,14.75,14.3,35.662,315.13,348.04,-99,2375.3
SA1987_SA2_87,PMEL,167.542,6/16/1986,13:00:29,-39.389,148.38,329.24,346.09,1036.4,1036.4,14.56,14.1,35.649,330.4,347.31,-99,2408.8
SA1987_SA2_87,PMEL,167.583,6/16/1986,13:59:31,-39.345,148.003,341.57,347.18,1036.4,1036.4,14.36,13.9,35.637,342.84,348.47,-99,2441.6
SA1987_SA2_87,PMEL,167.625,6/16/1986,15:00:00,-39.3,147.617,335.44,346.59,1036.3,1036.3,14.16,13.7,35.624,336.72,347.91,-99,2475.2
SA1987_SA2_87,PMEL,167.667,6/16/1986,16:00:29,-39.339,147.247,338.19,347.54,1035.8,1035.8,14.36,13.9,35.611,339.25,348.63,-99,2507.3
SA1987_SA2_87,PMEL,167.708,6/16/1986,16:59:31,-39.377,146.886,337.96,347.37,1035.3,1035.3,14.46,14,35.598,338.82,348.25,-99,2538.6
SA1987_SA2_87,PMEL,167.75,6/16/1986,18:00:00,-39.417,146.517,330.07,347.62,1034.8,1034.8,14.56,14.1,35.586,330.71,348.3,-99,2570.6
SA1987_SA2_87,PMEL,167.792,6/16/1986,19:00:29,-39.377,146.169,335.56,346.93,1034.7,1034.7,14.46,14,35.573,336.22,347.61,-99,2600.8
SA1987_SA2_87,PMEL,167.833,6/16/1986,19:59:31,-39.339,145.831,328.68,346.7,1034.6,1034.6,14.36,13.9,35.56,329.32,347.38,-99,2630.1
SA1987_SA2_87,PMEL,167.875,6/16/1986,21:00:00,-39.3,145.483,338.61,346.93,1034.5,1034.5,14.16,13.7,35.547,339.3,347.64,-99,2660.3
SA1987_SA2_87,PMEL,167.917,6/16/1986,22:00:29,-39.283,145.147,325.71,346.63,1034.7,1034.7,14.36,13.9,35.535,326.37,347.34,-99,2689.3
SA1987_SA2_87,PMEL,167.958,6/16/1986,22:59:31,-39.267,144.819,339.86,347.05,1035,1035,14.56,14.1,35.522,340.59,347.8,-99,2717.6
SA1987_SA2_87,PMEL,168,6/17/1986,0:00:00,-39.25,144.483,329.48,346.91,1035.2,1035.2,14.75,14.3,35.509,330.19,347.66,-99,2746.5
SA1987_SA2_87,PMEL,168.042,6/17/1986,1:00:29,-39.25,144.103,323.03,347.91,1030.9,1030.9,14.95,14.5,35.497,322.3,347.13,-99,2779.2
SA1987_SA2_87,PMEL,168.083,6/17/1986,1:59:31,-39.25,143.731,320.32,348.03,1026.8,1026.8,15.15,14.7,35.484,318.25,345.78,-99,2811.2
SA1987_SA2_87,PMEL,168.125,6/17/1986,3:00:00,-39.25,143.35,327.56,351.37,1022.5,1022.5,15.34,14.9,35.471,324,347.55,-99,2844
SA1987_SA2_87,PMEL,168.167,6/17/1986,4:00:29,-39.25,143.025,328.78,351.79,1025.3,1025.3,15.15,14.7,35.458,326.17,349,-99,2872
SA1987_SA2_87,PMEL,168.208,6/17/1986,4:59:31,-39.25,142.708,327.41,350.96,1027.9,1027.9,14.95,14.5,35.446,325.71,349.14,-99,2899.3
SA1987_SA2_87,PMEL,168.25,6/17/1986,6:00:00,-39.25,142.383,307.04,350.66,1030.7,1030.7,14.75,14.3,35.433,306.34,349.87,-99,2927.2
SA1987_SA2_87,PMEL,168.292,6/17/1986,7:00:29,-39.256,142.115,305.87,348.15,1030.6,1030.6,14.75,14.3,35.42,305.15,347.33,-99,2950.3
SA1987_SA2_87,PMEL,168.333,6/17/1986,7:59:31,-39.261,141.852,305.08,350.01,1030.6,1030.6,14.65,14.2,35.408,304.4,349.22,-99,2973
SA1987_SA2_87,PMEL,168.375,6/17/1986,9:00:00,-39.267,141.583,306.1,349.71,1030.5,1030.5,14.56,14.1,35.395,305.41,348.92,-99,2996.1
SA1987_SA2_87,PMEL,168.417,6/17/1986,10:00:29,-39.267,141.253,345.88,348.29,1030.2,1030.2,14.56,14.1,35.382,345,347.4,-99,3024.5
SA1987_SA2_87,PMEL,168.458,6/17/1986,10:59:31,-39.267,140.93,335.33,348.1,1029.8,1029.8,14.56,14.1,35.369,334.35,347.08,-99,3052.3
SA1987_SA2_87,PMEL,168.5,6/17/1986,12:00:00,-39.267,140.6,319.85,348.17,1029.5,1029.5,14.56,14.1,35.357,318.82,347.04,-99,3080.7
SA1987_SA2_87,PMEL,168.542,6/17/1986,13:00:29,-39.255,140.309,321.03,349.19,1029.2,1029.2,14.75,14.3,35.344,319.84,347.89,-99,3105.7
SA1987_SA2_87,PMEL,168.583,6/17/1986,13:59:31,-39.245,140.025,324.81,348.87,1029,1029,14.85,14.4,35.331,323.5,347.47,-99,3130.2
SA1987_SA2_87,PMEL,168.625,6/17/1986,15:00:00,-39.233,139.733,315.96,348.91,1028.7,1028.7,14.95,14.5,35.318,314.57,347.37,-99,3155.4
SA1987_SA2_87,PMEL,168.667,6/17/1986,16:00:29,-39.233,139.392,319.53,348.31,1028.2,1028.2,14.75,14.3,35.306,318.03,346.67,-99,3184.7
SA1987_SA2_87,PMEL,168.708,6/17/1986,16:59:31,-39.233,139.058,311.25,348.91,1027.8,1027.8,14.46,14,35.293,309.75,347.23,-99,3213.5
SA1987_SA2_87,PMEL,168.75,6/17/1986,18:00:00,-39.233,138.717,307.57,348.75,1027.3,1027.3,14.16,13.7,35.28,306.03,347,-99,3242.8
SA1987_SA2_87,PMEL,168.792,6/17/1986,19:00:29,-39.233,138.42,301.21,347.23,1027,1027,14.16,13.7,35.268,299.62,345.39,-99,3268.4
SA1987_SA2_87,PMEL,168.833,6/17/1986,19:59:31,-39.233,138.13,302.75,345.13,1026.6,1026.6,14.16,13.7,35.255,301.03,343.16,-99,3293.3
SA1987_SA2_87,PMEL,168.875,6/17/1986,21:00:00,-39.233,137.833,301.63,343.06,1026.3,1026.3,14.16,13.7,35.242,299.82,341,-99,3318.9
SA1987_SA2_87,PMEL,168.917,6/17/1986,22:00:29,-39.233,137.609,309.9,343.47,1026.1,1026.1,14.36,13.9,35.229,307.93,341.28,-99,3338.2
SA1987_SA2_87,PMEL,168.958,6/17/1986,22:59:31,-39.233,137.391,310.12,344.93,1025.8,1025.8,14.56,14.1,35.217,307.99,342.56,-99,3357
SA1987_SA2_87,PMEL,169,6/18/1986,0:00:00,-39.233,137.167,311.69,345.64,1025.6,1025.6,14.75,14.3,35.204,309.43,343.13,-99,3376.2
SA1987_SA2_87,PMEL,169.042,6/18/1986,1:00:29,-39.228,137.1,311.05,345.47,1025.1,1025.1,14.56,14.1,35.187,308.7,342.86,-99,3382
SA1987_SA2_87,PMEL,169.083,6/18/1986,1:59:31,-39.222,137.034,317.54,345.79,1024.6,1024.6,14.26,13.8,35.17,315.08,343.11,-99,3387.7
SA1987_SA2_87,PMEL,169.125,6/18/1986,3:00:00,-39.217,136.967,347.61,345.89,1024.1,1024.1,13.97,13.5,35.153,344.84,343.14,-99,3393.5
SA1987_SA2_87,PMEL,169.167,6/18/1986,4:00:29,-39.217,136.675,313.96,346.93,1023.4,1023.4,13.67,13.2,35.136,311.33,344.02,-99,3418.7
SA1987_SA2_87,PMEL,169.208,6/18/1986,4:59:31,-39.217,136.391,309.42,347.15,1022.7,1022.7,13.47,13,35.119,306.67,344.07,-99,3443.1
SA1987_SA2_87,PMEL,169.25,6/18/1986,6:00:00,-39.217,136.1,335.34,347.4,1022,1022,13.18,12.7,35.101,332.22,344.17,-99,3468.2
SA1987_SA2_87,PMEL,169.292,6/18/1986,7:00:29,-39.217,135.742,337.51,348.28,1021.8,1021.8,13.18,12.7,35.084,334.3,344.97,-99,3499
SA1987_SA2_87,PMEL,169.333,6/18/1986,7:59:31,-39.217,135.392,337,347.64,1021.7,1021.7,13.28,12.8,35.067,333.74,344.27,-99,3529.1
SA1987_SA2_87,PMEL,169.375,6/18/1986,9:00:00,-39.217,135.033,339.79,347.68,1021.5,1021.5,13.28,12.8,35.05,336.43,344.25,-99,3560
SA1987_SA2_87,PMEL,169.417,6/18/1986,10:00:29,-39.217,134.68,345.64,347.7,1021.3,1021.3,13.37,12.9,35.033,342.13,344.17,-99,3590.4
SA1987_SA2_87,PMEL,169.458,6/18/1986,10:59:31,-39.217,134.336,354.96,347.8,1021,1021,13.57,13.1,35.016,351.19,344.1,-99,3620
SA1987_SA2_87,PMEL,169.5,6/18/1986,12:00:00,-39.217,133.983,360.69,347.74,1020.8,1020.8,13.67,13.2,34.999,356.75,343.94,-99,3650.4
SA1987_SA2_87,PMEL,169.542,6/18/1986,13:00:29,-39.194,133.81,364.86,347.84,1020.3,1020.3,13.57,13.1,34.982,360.73,343.9,-99,3665.5
SA1987_SA2_87,PMEL,169.583,6/18/1986,13:59:31,-39.172,133.64,373.19,347.65,1019.7,1019.7,13.47,13,34.965,368.78,343.54,-99,3680.4
SA1987_SA2_87,PMEL,169.625,6/18/1986,15:00:00,-39.15,133.467,376.03,347.96,1019.2,1019.2,13.38,12.9,34.948,371.43,343.71,-99,3695.5
SA1987_SA2_87,PMEL,169.667,6/18/1986,16:00:29,-39.133,133.114,375.06,347.9,1018.4,1018.4,13.77,13.3,34.931,370.05,343.25,-99,3726
SA1987_SA2_87,PMEL,169.708,6/18/1986,16:59:31,-39.117,132.77,372.32,347.18,1017.7,1017.7,14.16,13.7,34.914,366.95,342.17,-99,3755.7
SA1987_SA2_87,PMEL,169.75,6/18/1986,18:00:00,-39.1,132.417,370.51,347.02,1016.9,1016.9,14.56,14.1,34.896,364.74,341.61,-99,3786.2
SA1987_SA2_87,PMEL,169.792,6/18/1986,19:00:29,-39.061,132.142,372.46,347.33,1016.1,1016.1,14.36,13.9,34.879,366.44,341.71,-99,3810.3
SA1987_SA2_87,PMEL,169.833,6/18/1986,19:59:31,-39.023,131.874,370.4,347.1,1015.2,1015.2,14.06,13.6,34.862,364.19,341.28,-99,3833.8
SA1987_SA2_87,PMEL,169.875,6/18/1986,21:00:00,-38.983,131.6,369.73,347.1,1014.4,1014.4,13.77,13.3,34.845,363.34,341.1,-99,3857.9
SA1987_SA2_87,PMEL,169.917,6/18/1986,22:00:29,-38.966,131.342,375.71,347.52,1013.8,1013.8,13.67,13.2,34.828,369.03,341.34,-99,3880.3
SA1987_SA2_87,PMEL,169.958,6/18/1986,22:59:31,-38.95,131.091,374.47,347.59,1013.2,1013.2,13.57,13.1,34.811,367.63,341.24,-99,3902
SA1987_SA2_87,PMEL,170,6/19/1986,0:00:00,-38.933,130.833,373.87,347.72,1012.6,1012.6,13.47,13,34.794,366.85,341.19,-99,3924.4
SA1987_SA2_87,PMEL,170.042,6/19/1986,1:00:29,-38.922,130.777,376.22,347.25,1012,1012,13.37,12.9,34.799,368.97,340.56,-99,3929.4
SA1987_SA2_87,PMEL,170.083,6/19/1986,1:59:31,-38.911,130.723,376.43,347.64,1011.4,1011.4,13.38,12.9,34.803,368.96,340.73,-99,3934.2
SA1987_SA2_87,PMEL,170.125,6/19/1986,3:00:00,-38.9,130.667,375.63,347.56,1010.8,1010.8,13.28,12.8,34.808,367.99,340.48,-99,3939.2
SA1987_SA2_87,PMEL,170.167,6/19/1986,4:00:29,-38.883,130.387,317.62,347.07,1009.4,1009.4,13.47,13,34.813,310.66,339.47,-99,3963.5
SA1987_SA2_87,PMEL,170.208,6/19/1986,4:59:31,-38.867,130.113,313.58,347.54,1008,1008,13.77,13.3,34.817,306.2,339.35,-99,3987.3
SA1987_SA2_87,PMEL,170.25,6/19/1986,6:00:00,-38.85,129.833,316.28,346.99,1006.6,1006.6,13.97,13.5,34.822,308.34,338.28,-99,4011.6
SA1987_SA2_87,PMEL,170.292,6/19/1986,7:00:29,-38.816,129.441,315.41,347.12,1006,1006,13.87,13.4,34.827,307.33,338.23,-99,4045.7
SA1987_SA2_87,PMEL,170.333,6/19/1986,7:59:31,-38.784,129.059,313.2,346.6,1005.4,1005.4,13.87,13.4,34.831,305,337.52,-99,4079
SA1987_SA2_87,PMEL,170.375,6/19/1986,9:00:00,-38.75,128.667,312.77,346.97,1004.8,1004.8,13.77,13.3,34.836,304.42,337.71,-99,4113.2
SA1987_SA2_87,PMEL,170.417,6/19/1986,10:00:29,-38.722,128.409,315.41,345.75,1004.6,1004.6,13.77,13.3,34.841,306.93,336.45,-99,4135.7
SA1987_SA2_87,PMEL,170.458,6/19/1986,10:59:31,-38.695,128.158,320.71,346.32,1004.4,1004.4,13.77,13.3,34.845,312.03,336.94,-99,4157.7
SA1987_SA2_87,PMEL,170.5,6/19/1986,12:00:00,-38.667,127.9,316.3,346.64,1004.2,1004.2,13.77,13.3,34.85,307.68,337.18,-99,4180.3
SA1987_SA2_87,PMEL,170.542,6/19/1986,13:00:29,-38.683,127.648,315.99,346.8,1003.7,1003.7,14.06,13.6,34.855,307.13,337.07,-99,4202.2
SA1987_SA2_87,PMEL,170.583,6/19/1986,13:59:31,-38.7,127.402,316.23,347.4,1003.3,1003.3,14.36,13.9,34.859,307.15,337.42,-99,4223.6
SA1987_SA2_87,PMEL,170.625,6/19/1986,15:00:00,-38.717,127.15,316.21,346.67,1002.8,1002.8,14.56,14.1,34.864,306.91,336.48,-99,4245.6
SA1987_SA2_87,PMEL,170.667,6/19/1986,16:00:29,-38.7,126.87,318.22,347.07,1002.3,1002.3,14.56,14.1,34.869,308.71,336.7,-99,4269.9
SA1987_SA2_87,PMEL,170.708,6/19/1986,16:59:31,-38.683,126.597,318.18,347.37,1001.9,1001.9,14.56,14.1,34.873,308.54,336.85,-99,4293.7
SA1987_SA2_87,PMEL,170.75,6/19/1986,18:00:00,-38.667,126.317,323.51,346.91,1001.4,1001.4,14.56,14.1,34.878,313.55,336.24,-99,4318
SA1987_SA2_87,PMEL,170.792,6/19/1986,19:00:29,-38.588,126.059,318.52,346.59,1000.9,1000.9,14.56,14.1,34.883,308.56,335.76,-99,4342.1
SA1987_SA2_87,PMEL,170.833,6/19/1986,19:59:31,-38.512,125.808,319.18,346.71,1000.4,1000.4,14.56,14.1,34.887,309.04,335.7,-99,4365.5
SA1987_SA2_87,PMEL,170.875,6/19/1986,21:00:00,-38.433,125.55,318.38,346.2,999.9,999.9,14.56,14.1,34.892,308.12,335.04,-99,4389.6
SA1987_SA2_87,PMEL,170.917,6/19/1986,22:00:29,-38.377,125.281,317.97,346.18,1000.1,1000.1,14.26,13.8,34.897,307.87,335.19,-99,4413.8
SA1987_SA2_87,PMEL,170.958,6/19/1986,22:59:31,-38.323,125.019,318.92,-99,1000.4,1000.4,13.97,13.5,34.901,308.98,-99,-99,4437.4
SA1987_SA2_87,PMEL,171,6/20/1986,0:00:00,-38.267,124.75,318.5,345.09,1000.6,1000.6,13.67,13.2,34.906,308.72,334.49,-99,4461.7
SA1987_SA2_87,PMEL,171.042,6/20/1986,1:00:29,-38.233,124.56,315.98,346.01,1000.8,1000.8,13.67,13.2,34.914,306.34,335.45,-99,4478.7